This is the latest recevied weather packets stored in our database for station/object N1ICS-1. If no packets are shown the sender has not sent any weather packets the latest 10 day(s).
| Time | Temp. | Humidity | Pressure | Rain* | Wind** | Luminosity | Snow |
|---|---|---|---|---|---|---|---|
| 1778029501 | 8.33° C | 99% | 1010.9 hPa | 1.78 mm | - | 0 W/m² | - |
| 1778029202 | 8.33° C | 99% | 1011.1 hPa | 1.02 mm | - | 0 W/m² | - |
| 1778028902 | 8.33° C | 99% | 1010.8 hPa | 1.02 mm | - | 0 W/m² | - |
| 1778028602 | 8.33° C | 99% | 1010.6 hPa | 1.02 mm | - | 0 W/m² | - |
| 1778028302 | 7.78° C | 99% | 1010.7 hPa | 1.02 mm | - | 0 W/m² | - |
| 1778028002 | 7.78° C | 99% | 1010.6 hPa | 2.29 mm | - | 0 W/m² | - |
| 1778027702 | 7.78° C | 99% | 1010.4 hPa | 2.29 mm | - | 1 W/m² | - |
| 1778027402 | 7.78° C | 99% | 1010.4 hPa | 2.79 mm | - | 1 W/m² | - |
| 1778027102 | 7.78° C | 99% | 1010.6 hPa | 2.79 mm | - | 1 W/m² | - |
| 1778026802 | 7.78° C | 99% | 1010.6 hPa | 2.29 mm | - | 2 W/m² | - |
| 1778026502 | 7.78° C | 99% | 1010.6 hPa | 2.29 mm | - | 3 W/m² | - |
| 1778026202 | 7.78° C | 99% | 1010.5 hPa | 2.29 mm | - | 4 W/m² | - |
| 1778025901 | 8.33° C | 99% | 1010.5 hPa | 2.29 mm | - | 5 W/m² | - |
| 1778025602 | 8.33° C | 99% | 1010.5 hPa | 1.78 mm | - | 7 W/m² | - |
| 1778025302 | 8.33° C | 99% | 1010.5 hPa | 2.29 mm | - | 7 W/m² | - |
| 1778025002 | 8.33° C | 99% | 1010.5 hPa | 2.29 mm | - | 8 W/m² | - |
| 1778024701 | 7.78° C | 99% | 1010.4 hPa | 1.78 mm | - | 10 W/m² | - |
| 1778024402 | 7.78° C | 99% | 1010.5 hPa | 1.02 mm | - | 9 W/m² | - |
| 1778024102 | 7.78° C | 99% | 1010.2 hPa | 1.78 mm | - | 14 W/m² | - |
| 1778023801 | 8.33° C | 99% | 1010.6 hPa | 2.29 mm | - | 13 W/m² | - |
| 1778023502 | 7.78° C | 99% | 1010.4 hPa | 1.78 mm | - | 16 W/m² | - |
| 1778023202 | 7.78° C | 99% | 1010.4 hPa | 1.78 mm | - | 16 W/m² | - |
| 1778022901 | 8.33° C | 99% | 1010.5 hPa | 1.78 mm | - | 23 W/m² | - |
| 1778022602 | 7.78° C | 99% | 1010.6 hPa | 1.78 mm | - | 23 W/m² | - |
| 1778022302 | 8.33° C | 99% | 1010.7 hPa | 2.29 mm | - | 19 W/m² | - |
* Rain latest hour (hover to see other rain measurements)
** Current wind speed in m/s (hover to see current wind gust speed)